User: anonymous   Login
Location: Unspecified
(0.0000°N, 0.0000°E)
Time: 23:34:44
(UTC+00:00)
Language:

FORMOSAT 3A - Orbit

View from above orbital plane
View from above orbital plane
View from above satellite
View from above satellite

Ground track
Ground track

The orbit data is extracted from the following two-line orbital elements,

1 29047U 06011A   18142.58138627 +.00000035 +00000-0 +29980-4 0  9996
2 29047 071.9795 214.6394 0052032 286.5496 072.9929 14.28638036633228
Epoch (UTC): 22 May 2018 13:57:11
Eccentricity: 0.0052032
inclination: 71.9795°
perigee height: 759 km
apogee height: 833 km
right ascension of ascending node: 214.6394°
argument of perigee: 286.5496°
revolutions per day: 14.28638036
mean anomaly at epoch: 72.9929°
orbit number at epoch: 63322

The dashed part of the orbit path shows where the satellite is in the earth's shadow,  

DLR